ZHONGXING-26

Last updated on Wed Sep 17 2025 00:02:51 GMT+0000 (Coordinated Universal Time)

1 55686U 23023A 25259.03758465 -.00000372 00000+0 00000+0 0 9992 2 55686 0.0615 75.7684 0001528 59.8498 358.2410 1.00268125 9489
UTC large
Height (km)
Speed (km/s)
/
Latitude / Longitude
Inclination (degrees)
Orbital Period (minutes)
Azimuth
Elevation
Range (km)
Doppler Factor

Next 0 passes for location: London (51.5072 / 0.1276)

Sorry there are no passes over London.